{"data":{"norad_id":55435,"epoch":"2026-09-20T14:10:07.869504Z","epoch_age_seconds":88810,"freshness":"FRESH","line1":"1 55435U 23014AW  26263.59036886  .00000394  00000+0  40846-4 0  9997","line2":"2 55435  69.9995 333.0161 0003664 269.6200  90.4539 14.98330233200268","mean_motion":14.98330233,"eccentricity":0.0003664,"inclination_deg":69.9995,"raan_deg":333.0161,"arg_perigee_deg":269.62,"mean_anomaly_deg":90.4539,"bstar":4.0846e-5,"rev_number":20026,"period_min":96.106984180436,"perigee_km":569.50861999999,"apogee_km":574.60172082247,"semimajor_km":6950.1921704112,"source":"CELESTRAK","updated_at":"2026-09-21T09:00:33.223432Z"}}